This is the latest recevied weather packets stored in our database for station/object N6AMQ-1. If no packets are shown the sender has not sent any weather packets the latest 10 day(s).
| Time | Temp. | Humidity | Pressure | Rain* | Wind** | Luminosity | Snow |
|---|---|---|---|---|---|---|---|
| 1788450541 | 17.78° C | 78% | 1015.9 hPa | 0 mm | - | - | - |
| 1788449941 | 17.22° C | 82% | 1015.9 hPa | 0 mm | - | - | - |
| 1788449641 | 16.67° C | 83% | 1015.9 hPa | 0 mm | - | - | - |
| 1788449341 | 16.11° C | 85% | 1015.9 hPa | 0 mm | - | - | - |
| 1788449041 | 15.56° C | 86% | 1015.9 hPa | 0 mm | - | - | - |
| 1788448504 | 14.44° C | 90% | 1015.9 hPa | 0 mm | - | - | - |
| 1788447841 | 13.89° C | 87% | 1015.9 hPa | 0 mm | - | - | - |
| 1788447305 | 13.33° C | 87% | 1015.9 hPa | 0 mm | - | - | - |
| 1788446107 | 12.78° C | 86% | 1015.9 hPa | 0 mm | - | - | - |
| 1788446041 | 12.78° C | 86% | 1015.9 hPa | 0 mm | - | - | - |
| 1788445741 | 12.78° C | 86% | 1015.9 hPa | 0 mm | - | - | - |
| 1788444903 | 12.78° C | 85% | 1015.9 hPa | 0 mm | - | - | - |
| 1788444241 | 12.78° C | 85% | 1015.9 hPa | 0 mm | - | - | - |
| 1788443941 | 12.78° C | 84% | 1015.9 hPa | 0 mm | - | - | - |
| 1788443703 | 12.78° C | 84% | 1015.9 hPa | 0 mm | - | - | - |
| 1788443641 | 12.78° C | 84% | 1015.9 hPa | 0 mm | - | - | - |
| 1788442503 | 12.78° C | 84% | 1015.9 hPa | 0 mm | - | - | - |
| 1788442141 | 12.78° C | 84% | 1015.9 hPa | 0 mm | - | - | - |
| 1788441303 | 12.78° C | 83% | 1015.9 hPa | 0 mm | - | - | - |
| 1788441241 | 12.78° C | 83% | 1015.9 hPa | 0 mm | - | - | - |
| 1788440941 | 12.78° C | 83% | 1015.9 hPa | 0 mm | - | - | - |
| 1788440103 | 12.78° C | 83% | 1015.9 hPa | 0 mm | - | - | - |
| 1788438903 | 13.33° C | 82% | 1015.9 hPa | 0 mm | - | - | - |
| 1788437945 | 13.33° C | 82% | 1015.9 hPa | 0 mm | - | - | - |
| 1788437702 | 13.33° C | 82% | 1015.9 hPa | 0 mm | - | - | - |
* Rain latest hour (hover to see other rain measurements)
** Current wind speed in m/s (hover to see current wind gust speed)